Regional Weather Roundup
Issued by NWS

Home | Current Version | Previous Version | Text Only | Print | Product List | Glossary Off
Versions: 1 2 3 4 5 6 7 8 9 10 11 12 13 14 15 16 17 18 19 20 21 22 23 24 25 26 27 28 29 30 31 32 33 34 35 36 37 38 39 40 41 42 43 44 45 46 47 48 49 50

000
ASUS43 KFSD 011302
RWRSD

WEATHER ROUNDUP FOR SOUTH DAKOTA
NATIONAL WEATHER SERVICE SIOUX FALLS SD
800 AM CDT SAT AUG 01 2015

NOTE: "FAIR" INDICATES FEW OR NO CLOUDS BELOW 12,000 FEET WITH NO
SIGNIFICANT WEATHER AND/OR OBSTRUCTIONS TO VISIBILITY.


SDZ001>005-009-010-012>017-011400-
NORTHWEST AND NORTH CENTRAL SOUTH DAKOTA

CITY           SKY/WX    TMP DP  RH WIND       PRES   REMARKS
BUFFALO          N/A     67  51  56 W8        29.93S
FAITH            N/A     70  56  61 SW14      29.94F
MOBRIDGE       SUNNY     66  59  78 E12       29.91F
$$

SDZ012>016-024>037-041>051-057-063-072>074-011400-
SOUTHWEST AND SOUTH CENTRAL SOUTH DAKOTA

CITY           SKY/WX    TMP DP  RH WIND       PRES   REMARKS
RAPID CTY ARPT MOSUNNY   64  59  83 CALM      30.01R
PIERRE         MOSUNNY   68  61  78 S5        29.93F
CUSTER         SUNNY     62  49  62 S3        30.18R
ELLSWORTH AFB  MOSUNNY   67  58  74 SW5       30.00S
PHILIP         MOSUNNY   72  64  76 SE10      29.95F
PINE RIDGE     MOSUNNY   62  56  80 E9        30.07R
WINNER         TSTM      73  56  54 W26G43    30.03R
$$

SDZ004>011-016>023-039-040-011400-
NORTHEAST SOUTH DAKOTA

CITY           SKY/WX    TMP DP  RH WIND       PRES   REMARKS
ABERDEEN       SUNNY     63  58  83 NE5       29.96S
WATERTOWN      SUNNY     65  60  84 S5        30.00S
BROOKINGS      SUNNY     64  61  88 SE6       30.03S
SISSETON         N/A     65  59  81 CALM      29.97S
$$

SDZ017-020-022-023-036>040-048>070-011400-
SOUTHEAST SOUTH DAKOTA

CITY           SKY/WX    TMP DP  RH WIND       PRES   REMARKS
SIOUX FALLS    MOSUNNY   71  67  87 SW3       30.02S
HURON          SUNNY     64  63  96 SE5       29.97S
MITCHELL       MOSUNNY   66  65  96 SE6       29.99F
YANKTON        PTSUNNY   72  66  83 SW10      30.01F
$$

ABBREVIATIONS USED IN REMARKS
   TC - TEMPERATURE IN CELSIUS
  WCI - WIND CHILL INDEX
   HX - HEAT INDEX
  VSB - VISIBILITY




USA.gov is the U.S. government's official web portal to all federal, state and local government web resources and services.